Location: Bryzozowice
(50.3667°N, 18.9667°E)
Time: 21:59:15
(UTC+00:00)

STARLINK-1117 - Pass Details

Date: 24 January 2020
Orbit: 348 x 351 km, 53.0° (Epoch: 25 February)

Event Time Altitude Azimuth Distance (km) Brightness Sun altitude
Rises 17:11:19 0° 279° (W) 2,172 8.1 -17.1°
Reaches altitude 10° 17:13:23 10° 285° (WNW) 1,327 6.6 -17.4°
Maximum altitude 17:16:15 47° 2° (N) 478 3.2 -17.8°
Enters shadow 17:16:18 47° 5° (N) 479 3.2 -17.8°
